Other Public Products
Issued by NWS Charleston, SC

Current Version | Previous Version | Graphics & Text | Print | Product List | Glossary On
Versions: 1 2 3 4 5 6 7 8 9 10 11 12 13 14 15 16 17 18 19 20 21 22 23 24 25 26 27 28 29 30 31 32 33 34 35 36 37 38 39 40 41 42 43 44 45 46 47 48 49 50
066 FPUS82 KCHS 220125 OPUCHS TEST...KCHS/KSAV Gateway Observations...TEST National Weather Service Charleston SC 800 PM EST TUE FEB 21 2017 NOTE: "fair" indicates few or no clouds below 12,000 feet with no significant weather and/or obstructions to visibility. SCZ050-WAZ558-NCZ071-TXZ119-213-PAZ071-DCZ001-FLZ074-172-MI076- NYZ176-178-MAZ016-IL014-TNZ027-NJZ106-GAZ044-MD014-220200- ...Gateway Observations for Charleston International... CITY SKY/WX TMP DP RH WIND PRES REMARKS Chas Airport MOCLDY 62 57 83 E8 30.07F Seattle LGT RAIN 45 40 82 NW5 30.02R Charlotte CLOUDY 63 41 44 E8 30.11S Dallas DFW CLEAR 68 43 40 NW7 29.91R Dallas Love PTCLDY 68 43 40 NW6 29.91R Philladelphia CLOUDY 45 33 63 SE5 30.20S Wash National MOCLDY 49 38 65 SE7 30.17F Baltimore CLOUDY 47 32 56 SE3 30.16F Miami CLOUDY 70 62 76 E12 29.97F Detroit MOCLDY 54 48 80 CALM 29.95S Newark MOCLDY 41 31 67 S8 30.20R Laguardia CLOUDY 44 33 65 S10 30.20F J F K MOCLDY 42 36 79 S10 30.22S Boston Logan CLOUDY 39 27 62 SW10 30.19F WCI 32 Ft. Lauderdale MOCLDY 74 61 63 SE15 29.97S Chicago O`Hare MOCLDY 58 50 75 SW3 29.90R Chicago Midway MOCLDY 60 52 74 SW3 29.90S Houston Bush CLEAR 68 48 48 W5 29.90R Houston Hobby CLEAR 72 46 39 NW8 29.90R Nashville LGT RAIN 60 56 86 S6 29.97R Atlanta RAIN 61 60 97 CALM 29.98F FOG $$ GAZ044-118-TXZ119-213-NCZ071-DCZ001-MDZ014-506-PAZ021-071-NJZ106- NYZ176-178-MAZ106-OHZ011-021-055-MIZ076-KYZ091-ILZ014-INZ047- MNZ060-220200- ...Gateway Observations for Savannah International... CITY SKY/WX TMP DP RH WIND PRES REMARKS Savannah Arpt LGT RAIN 67 60 78 E8 30.02F Atlanta RAIN 61 60 97 CALM 29.98F FOG Charlotte CLOUDY 63 41 44 E8 30.11S Dallas DFW CLEAR 68 43 40 NW7 29.91R Houston Bush CLEAR 68 48 48 W5 29.90R Wash National MOCLDY 49 38 65 SE7 30.17F Wash Dulles CLOUDY 49 34 56 S7 30.14F Baltimore CLOUDY 47 32 56 SE3 30.16F Philadelphia CLOUDY 45 33 63 SE5 30.20S Newark MOCLDY 41 31 67 S8 30.20R Laguardia CLOUDY 44 33 65 S10 30.20F J F K MOCLDY 42 36 79 S10 30.22S Boston CLOUDY 39 27 62 SW10 30.19F WCI 32 Pittsburg CLOUDY 61 44 53 S3 29.99F Akron CLOUDY 60 44 55 W3 29.97S Cleveland CLOUDY 60 44 55 NW5 29.98R Cincinnati LGT RAIN 56 55 97 SE6 29.99S FOG Columbus CLOUDY 55 53 93 S8 29.98S Detroit MOCLDY 54 48 80 CALM 29.95S Chicago O`Hare MOCLDY 58 50 75 SW3 29.90R Minneapolis MOCLDY 58 45 62 S8 29.71R Indianapolis CLOUDY 58 52 80 S9 29.95R $$

USA.gov is the U.S. government's official web portal to all federal, state and local government web resources and services.